SL-16 DEB, 39724

Orbit data source: Space-Track

SL-16 DEB, 39724 is space debris in LEO originally from a launch on Fri, 25 Dec 1992 UTC launched from the Tyuratam Missile And Space Complex (TTMTR). Debris objects in space refer to the collection of defunct objects orbiting the Earth. Examples of debris include non-operational satellites, rocket bodies, and fragments generated from explosions, collisions, or faulty payload assembly.

Loading next visibility...
Identifier
39724, 1992-093KQ
Orbit
LEO
Country
Flag of CISCIS
Related business
Manufacturer
Unknown
Mission
Spacecraft
Bus & Motor
Unknown
Mass
Unknown
Launch date (UTC)
1992-12-25 (33 years ago)
Launch vehicle
Unknown
Launch site
Tyuratam Missile And Space Complex (TTMTR)
Object type
Payload
Rocket body
Debris
Shape & HBR
Unknown shape, 0.1 m
Radar Cross Section
Small (<0.1 m²)

Expand to show TLE details & history
Last TLE update: 1 day ago

TLE from 1 day ago
0 SL-16 DEB
1 39724U 92093KQ  25306.93456661  .00000669  00000-0  44528-3 0  9991
2 39724  70.8520  17.1333 0091493 272.8165  86.2481 14.02954705590509
Epoch: 2025-11-02T22:25Z
TLE epoch observation values (Epoch: 2025-11-02T22:25:46.555Z)
Latitude
-0.00005°
Longitude
-1.75386°
Altitude
882.216 km
Speed
7.413 km/s
True Right ascension
01h 08m 31s
True Declination
0° 00' 00"
Sunlit
Object was in full shadow at epoch
Visualization orbit readout
Latitude
Unknown
Longitude
Unknown
Altitude
Unknown
Speed
Unknown
Apparent Right ascension
Unknown
Apparent Declination
Unknown
Sunlit
N/A
Visualization observer readout
Local Sidereal Time
06:17:56
Azimuth
Unknown
Elevation
Unknown
Doppler factor
Unknown
Orbital elements
Apogee altitude
947.953 km
Perigee altitude
815.112 km
Semi-major axis
7,259.669 km
Eccentricity
0.00915
Inclination
70.852°
RAAN
17.1333°
Arg. of periapsis
272.8165°
True anomaly
87.29501°
Mean anomaly
86.2481°
Eccentric anomaly
86.77148°
Mean motion
3.50888 °/min
Orbital period
102.6 mins
BSTAR
0.00044528
Loading maneuver chart data...
Computing Atmospheric mass density...

Documentation

Showing up to 5 results
|